| time (UTC) | temp C | wind direction | speed KPH | gust KPH | rain 1hr cm | rain 24hr cm | rain mn cm | humidity % | barometer mb |
| 20260506203038 | 9 | 0 | 0.0 | 0.0 | 0.00 | 1.30 | 1.09 | 93 | 1014.8 |
| 20260506202050 | 9 | 0 | 0.0 | 0.0 | 0.00 | 1.37 | 1.09 | 93 | 1014.7 |
| 20260506201039 | 9 | 0 | 0.0 | 0.0 | 0.00 | 1.37 | 1.09 | 92 | 1014.7 |
| 20260506200040 | 10 | 0 | 0.0 | 0.0 | 0.00 | 1.45 | 1.09 | 91 | 1014.6 |
| 20260506195033 | 10 | 0 | 0.0 | 0.0 | 0.00 | 1.45 | 1.09 | 91 | 1014.4 |
| 20260506194037 | 10 | 0 | 0.0 | 0.0 | 0.00 | 1.50 | 1.09 | 90 | 1014.3 |
| 20260506190043 | 10 | 0 | 0.0 | 0.0 | 0.00 | 1.65 | 1.09 | 86 | 1013.8 |
| 20260506185038 | 10 | 0 | 0.0 | 0.0 | 0.00 | 1.65 | 1.09 | 86 | 1013.7 |
| 20260506184036 | 11 | 0 | 0.0 | 0.0 | 0.00 | 1.68 | 1.09 | 86 | 1013.6 |
| 20260506183042 | 11 | 0 | 0.0 | 0.0 | 0.00 | 1.68 | 1.09 | 83 | 1013.5 |
| 20260506182040 | 11 | 0 | 0.0 | 0.0 | 0.00 | 1.70 | 1.09 | 83 | 1013.3 |
| 20260506180039 | 12 | 0 | 0.0 | 0.0 | 0.00 | 1.75 | 1.09 | 83 | 1013.0 |
| 20260506175039 | 11 | 0 | 0.0 | 0.0 | 0.00 | 1.75 | 1.09 | 83 | 1012.8 |
| 20260506174042 | 12 | 0 | 0.0 | 0.0 | 0.00 | 1.75 | 1.09 | 84 | 1012.7 |
| 20260506173038 | 11 | 0 | 0.0 | 0.0 | 0.00 | 1.75 | 1.09 | 86 | 1012.6 |
| 20260506171041 | 11 | 0 | 0.0 | 0.0 | 0.00 | 1.75 | 1.09 | 85 | 1012.5 |
| 20260506165031 | 12 | 0 | 0.0 | 0.0 | 0.00 | 1.75 | 1.09 | 83 | 1012.3 |
| 20260506164038 | 12 | 0 | 0.0 | 0.0 | 0.00 | 1.75 | 1.09 | 82 | 1012.2 |
| 20260506163041 | 12 | 0 | 0.0 | 0.0 | 0.00 | 1.75 | 1.09 | 83 | 1012.1 |
| 20260506162035 | 12 | 0 | 0.0 | 0.0 | 0.00 | 1.75 | 1.09 | 83 | 1012.1 |
| 20260506160036 | 12 | 0 | 0.0 | 0.0 | 0.00 | 1.75 | 1.09 | 83 | 1012.1 |
| 20260506155039 | 12 | 0 | 0.0 | 0.0 | 0.00 | 1.75 | 1.09 | 80 | 1012.0 |
| 20260506154034 | 13 | 0 | 0.0 | 0.0 | 0.00 | 1.75 | 1.09 | 77 | 1012.0 |
| 20260506153039 | 13 | 0 | 0.0 | 0.0 | 0.00 | 1.75 | 1.09 | 80 | 1012.0 |
| 20260506152036 | 13 | 0 | 0.0 | 0.0 | 0.00 | 1.75 | 1.09 | 82 | 1011.9 |
| 20260506151042 | 13 | 0 | 0.0 | 0.0 | 0.00 | 1.75 | 1.09 | 78 | 1011.8 |
| 20260506150036 | 13 | 0 | 0.0 | 0.0 | 0.00 | 1.75 | 1.09 | 81 | 1011.8 |
| 20260506144037 | 13 | 0 | 0.0 | 0.0 | 0.00 | 1.75 | 1.09 | 83 | 1011.8 |
| 20260506143037 | 13 | 0 | 0.0 | 0.0 | 0.00 | 1.75 | 1.09 | 84 | 1011.8 |
| 20260506141034 | 13 | 0 | 0.0 | 0.0 | 0.00 | 1.75 | 1.09 | 86 | 1011.8 |
| 20260506140040 | 12 | 0 | 0.0 | 0.0 | 0.00 | 1.75 | 1.09 | 83 | 1011.8 |
| 20260506134037 | 12 | 0 | 0.0 | 0.0 | 0.00 | 1.75 | 1.09 | 88 | 1011.8 |
| 20260506133041 | 12 | 0 | 0.0 | 0.0 | 0.00 | 1.75 | 1.09 | 91 | 1011.8 |
| 20260506132038 | 12 | 0 | 0.0 | 0.0 | 0.00 | 1.75 | 1.09 | 93 | 1011.8 |
| 20260506131036 | 12 | 0 | 0.0 | 0.0 | 0.00 | 1.75 | 1.09 | 90 | 1011.8 |
| 20260506125037 | 12 | 0 | 0.0 | 0.0 | 0.00 | 1.75 | 1.09 | 90 | 1011.6 |
| 20260506124038 | 12 | 0 | 0.0 | 0.0 | 0.00 | 1.75 | 1.09 | 92 | 1011.6 |
| 20260506120038 | 11 | 0 | 0.0 | 0.0 | 0.00 | 1.75 | 1.09 | 96 | 1011.6 |
| 20260506114039 | 11 | 0 | 0.0 | 0.0 | 0.00 | 1.75 | 1.09 | 90 | 1011.5 |
| 20260506113036 | 12 | 0 | 0.0 | 0.0 | 0.00 | 1.75 | 1.09 | 91 | 1011.5 |
| 20260506112035 | 11 | 0 | 0.0 | 0.0 | 0.00 | 1.75 | 1.09 | 95 | 1011.6 |
| 20260506111037 | 11 | 0 | 0.0 | 0.0 | 0.00 | 1.75 | 1.09 | 96 | 1011.7 |
| 20260506105039 | 10 | 0 | 0.0 | 0.0 | 0.00 | 1.75 | 1.09 | 10 | 1011.7 |
| 20260506104037 | 10 | 0 | 0.0 | 0.0 | 0.00 | 1.75 | 1.09 | 99 | 1011.8 |
| 20260506101037 | 10 | 0 | 0.0 | 0.0 | 0.00 | 1.75 | 1.09 | 10 | 1011.5 |
| 20260506095040 | 10 | 0 | 0.0 | 0.0 | 0.00 | 1.75 | 1.09 | 10 | 1011.5 |
| 20260506094034 | 10 | 0 | 0.0 | 0.0 | 0.00 | 1.75 | 1.09 | 10 | 1011.4 |
| 20260506093038 | 10 | 0 | 0.0 | 0.0 | 0.00 | 1.75 | 1.09 | 10 | 1011.2 |
| 20260506091040 | 10 | 0 | 0.0 | 0.0 | 0.00 | 1.75 | 1.09 | 10 | 1011.2 |
| 20260506085036 | 9 | 0 | 0.0 | 0.0 | 0.03 | 1.75 | 1.09 | 10 | 1011.2 |
| 20260506084035 | 9 | 0 | 0.0 | 0.0 | 0.03 | 1.75 | 1.09 | 10 | 1011.1 |
| 20260506083035 | 8 | 0 | 0.0 | 0.0 | 0.03 | 1.78 | 1.09 | 10 | 1011.0 |
| 20260506082038 | 8 | 0 | 0.0 | 0.0 | 0.08 | 1.78 | 1.09 | 10 | 1011.0 |
| 20260506081038 | 8 | 0 | 0.0 | 0.0 | 0.08 | 1.78 | 1.09 | 10 | 1010.9 |
| 20260506072035 | 8 | 0 | 0.0 | 0.0 | 0.15 | 1.75 | 1.09 | 10 | 1010.3 |
| 20260506062036 | 8 | 0 | 0.0 | 0.0 | 0.15 | 1.68 | 0.99 | 10 | 1010.3 |
| 20260506040036 | 8 | 0 | 0.0 | 0.0 | 0.13 | 1.75 | 0.86 | 10 | 1010.2 |
| 20260506034040 | 8 | 0 | 0.0 | 0.0 | 0.13 | 1.78 | 0.86 | 10 | 1010.2 |
| 20260506020041 | 8 | 0 | 0.0 | 0.0 | 0.15 | 2.31 | 0.74 | 10 | 1010.7 |
| 20260506011037 | 9 | 0 | 0.0 | 0.0 | 0.18 | 2.24 | 0.66 | 10 | 1010.7 |
| 20260506010023 | 9 | 0 | 0.0 | 0.0 | 0.20 | 2.21 | 0.64 | 10 | 1011.1 |
| 20260506004041 | 9 | 0 | 0.0 | 0.0 | 0.23 | 2.18 | 0.61 | 10 | 1011.1 |
| 20260506003043 | 9 | 0 | 0.0 | 0.0 | 0.23 | 2.13 | 0.56 | 10 | 1011.1 |
| 20260506001036 | 9 | 0 | 0.0 | 0.0 | 0.23 | 2.11 | 0.51 | 10 | 1011.1 |
| 20260505235039 | 9 | 0 | 0.0 | 0.0 | 0.23 | 2.03 | 0.43 | 10 | 1011.2 |
| 20260505234041 | 9 | 0 | 0.0 | 0.0 | 0.25 | 2.01 | 0.43 | 10 | 1011.2 |
| 20260505233039 | 9 | 0 | 0.0 | 0.0 | 0.30 | 1.96 | 0.38 | 10 | 1011.3 |
| 20260505232039 | 9 | 0 | 0.0 | 0.0 | 0.28 | 1.93 | 0.33 | 10 | 1011.3 |
| 20260505231035 | 10 | 0 | 0.0 | 0.0 | 0.30 | 1.91 | 0.33 | 10 | 1011.4 |
| 20260505230036 | 10 | 0 | 0.0 | 0.0 | 0.28 | 1.85 | 0.28 | 10 | 1011.5 |
| 20260505225039 | 10 | 0 | 0.0 | 0.0 | 0.28 | 1.83 | 0.23 | 10 | 1011.5 |
| 20260505224041 | 10 | 0 | 0.0 | 0.0 | 0.23 | 1.78 | 0.20 | 10 | 1011.5 |
| 20260505223038 | 10 | 0 | 0.0 | 0.0 | 0.20 | 1.75 | 0.15 | 10 | 1011.5 |
| 20260505222037 | 10 | 0 | 0.0 | 0.0 | 0.15 | 1.65 | 0.08 | 10 | 1011.5 |
| 20260505220036 | 10 | 0 | 0.0 | 0.0 | 0.15 | 1.60 | 0.03 | 10 | 1011.7 |
| 20260505215042 | 10 | 0 | 0.0 | 0.0 | 0.15 | 1.57 | 1.57 | 10 | 1011.7 |
| 20260505212041 | 10 | 0 | 0.0 | 0.0 | 0.23 | 1.55 | 1.55 | 10 | 1011.8 |
| 20260505211040 | 10 | 0 | 0.0 | 0.0 | 0.23 | 1.52 | 1.52 | 10 | 1011.9 |
| 20260505210034 | 10 | 0 | 0.0 | 0.0 | 0.28 | 1.52 | 1.50 | 10 | 1011.9 |